Location: Unspecified
(0.0000°N, 0.0000°E)
Time: 17:11:13
(UTC+00:00)

STSS DEMO 2 (USA 209) - Visible Passes

Search period start: 28 May 2023 00:00
Search period end: 07 June 2023 00:00
Orbit: 1347 x 1377 km, 58.0° (Epoch: 01 May)

Date Brightness Start Highest point End Pass type
(mag) Time Alt. Az. Time Alt. Az. Time Alt. Az.
28 May 6.6 01:54:25 19° ENE 01:54:25 19° ENE 01:56:42 10° NE visible
28 May 5.5 03:47:26 32° NW 03:47:26 32° NW 03:53:49 10° N visible
29 May 6.1 02:23:33 30° NE 02:23:33 30° NE 02:27:21 10° NNE visible
29 May 6.3 04:16:34 14° WNW 04:16:34 14° WNW 04:20:37 10° NNW visible
30 May 5.9 02:52:38 31° N 02:52:38 31° N 02:56:51 10° NNE visible
31 May 7.0 01:28:38 12° NE 01:28:38 12° NE 01:29:11 10° NE visible
31 May 6.2 03:21:37 20° NNW 03:21:37 20° NNW 03:25:09 10° N visible
01 Jun 6.7 01:57:34 18° NNE 01:57:34 18° NNE 01:59:24 10° NNE visible
02 Jun 6.5 02:26:27 18° N 02:26:27 18° N 02:28:32 10° N visible
03 Jun 6.7 02:55:17 12° NNW 02:55:17 12° NNW 02:56:11 10° NNW visible
04 Jun 7.1 01:31:04 11° NNE 01:31:04 11° NNE 01:31:21 10° NNE visible
05 Jun 7.0 01:59:47 11° N 01:59:47 11° N 02:00:03 10° N visible
